Lander, WY

2:18 AM MDT on September 22, 2017 (GMT -0600)
Hunt

Weather History for KLND - March, 2012

Change the Weather History Date:

Tuesday, March 20, 2012

  Actual Average Record
Temperature  
Mean Temperature 34 °F 37 °F  
Max Temperature 49 °F 49 °F 72 °F (1997)
Min Temperature 18 °F 25 °F -13 °F (1903)
Degree Days  
Heating Degree Days 31 28  
Month to date heating degree days 481 625  
Since 1 July heating degree days 5824 6329  
Cooling Degree Days 0 0  
Month to date cooling degree days 0 0  
Year to date cooling degree days 0 0  
Moisture  
Dew Point 13 °F    
Average Humidity 55    
Maximum Humidity 88    
Minimum Humidity 21    
Precipitation  
Precipitation 0.00 in 0.04 in 1.27 in (1894)
Month to date precipitation 0.36 0.66  
Year to date precipitation 1.67 1.65  
Snow  
Snow 0.00 in 0.60 in - ()
Month to date snowfall 7.5 9.5  
Since 1 July snowfall 59.2 63.1  
Snow Depth 0.00 in    
Sea Level Pressure  
Sea Level Pressure 29.90 in    
Wind  
Wind Speed 5 mph (SSE)    
Max Wind Speed 10 mph    
Max Gust Speed -    
Visibility 10 miles    
Events      
T = Trace of Precipitation, MM = Missing Value Source: NWS Daily Summary

Daily Weather History Graph

Daily Weather History Graph

Search for Another Location

Airport or City:

Trip Planner

Search our weather history database for the weather conditions in past years. The results will help you decide how hot, cold, wet, or windy it might be!

Date:

Astronomy

Mar. 20, 2012 Rise Set
Actual Time 7:17 AM MDT 7:27 PM MDT
Civil Twilight 6:48 AM MDT 7:56 PM MDT
Nautical Twilight 6:15 AM MDT 8:29 PM MDT
Astronomical Twilight 5:42 AM MDT 9:03 PM MDT
Moon 6:02 AM MDT (3/20) 5:58 PM MDT (3/20)
Length of Visible Light 13h 07m
Length of Day
12h 10m
Waning Crescent, 3% of the Moon is Illuminated
Mar 20
Waning Crescent
Mar 22
New
Mar 30
First Quarter
Apr 6
Full
Apr 13
Last Quarter

Hourly Weather History & Observations

Time (MDT) Temp. Windchill Dew Point Humidity Pressure Visibility Wind Dir Wind Speed Gust Speed Precip Events Conditions
12:53 AM 26.1 °F 20.5 °F 19.0 °F 75% 29.79 in 10.0 mi South 4.6 mph - N/A   Clear
1:53 AM 23.0 °F - 19.0 °F 85% 29.82 in 10.0 mi Calm Calm - N/A   Clear
2:53 AM 21.9 °F 12.5 °F 18.0 °F 85% 29.84 in 10.0 mi WNW 8.1 mph - N/A   Clear
3:53 AM 21.9 °F 14.5 °F 10.9 °F 63% 29.83 in 10.0 mi West 5.8 mph - N/A   Clear
4:53 AM 21.9 °F 17.2 °F 12.9 °F 68% 29.85 in 10.0 mi WNW 3.5 mph - N/A   Clear
5:53 AM 21.9 °F - 14.0 °F 72% 29.88 in 10.0 mi Calm Calm - N/A   Clear
6:53 AM 19.9 °F 13.4 °F 14.0 °F 78% 29.93 in 10.0 mi East 4.6 mph - N/A   Clear
7:53 AM 21.0 °F 16.2 °F 15.1 °F 78% 29.96 in 10.0 mi ESE 3.5 mph - N/A   Clear
8:53 AM 24.1 °F 18.2 °F 16.0 °F 71% 29.98 in 10.0 mi ESE 4.6 mph - N/A   Clear
9:53 AM 30.0 °F 21.7 °F 14.0 °F 51% 29.96 in 10.0 mi SE 9.2 mph - N/A   Clear
10:53 AM 34.0 °F 26.0 °F 10.0 °F 37% 29.95 in 10.0 mi SE 10.4 mph - N/A   Clear
11:53 AM 37.9 °F 32.1 °F 10.0 °F 32% 29.93 in 10.0 mi East 8.1 mph - N/A   Clear
12:53 PM 39.0 °F 36.8 °F 9.0 °F 29% 29.93 in 10.0 mi Variable 3.5 mph - N/A   Clear
1:53 PM 41.0 °F 39.0 °F 10.0 °F 28% 29.92 in 10.0 mi Variable 3.5 mph - N/A   Clear
2:53 PM 42.1 °F - 10.0 °F 27% 29.92 in 10.0 mi Calm Calm - N/A   Clear
3:53 PM 48.0 °F - 12.0 °F 24% 29.88 in 10.0 mi Variable 3.5 mph - N/A   Clear
4:53 PM 48.0 °F - 10.9 °F 22% 29.87 in 10.0 mi Calm Calm - N/A   Clear
5:53 PM 48.0 °F - 12.0 °F 24% 29.85 in 10.0 mi East 4.6 mph - N/A   Clear
6:53 PM 46.0 °F 43.9 °F 12.0 °F 25% 29.88 in 10.0 mi NE 4.6 mph - N/A   Clear
7:53 PM 44.1 °F 42.5 °F 10.0 °F 25% 29.90 in 10.0 mi Variable 3.5 mph - N/A   Clear
8:53 PM 37.9 °F 32.1 °F 15.1 °F 39% 29.93 in 10.0 mi WSW 8.1 mph - N/A   Clear
9:53 PM 36.0 °F 33.3 °F 14.0 °F 41% 29.94 in 10.0 mi Variable 3.5 mph - N/A   Clear
10:53 PM 35.1 °F 29.3 °F 15.1 °F 44% 29.94 in 10.0 mi WSW 6.9 mph - N/A   Clear
11:53 PM 36.0 °F 33.3 °F 16.0 °F 44% 29.93 in 10.0 mi SSW 3.5 mph - N/A   Clear